Weather Roundup
Issued by NWS Springfield, MO

Home | Current Version | Previous Version | Text Only | Print | Product List | Glossary On
Versions: 1 2 3 4 5 6 7 8 9 10 11 12 13 14 15 16 17 18 19 20 21 22 23 24 25 26 27 28 29 30 31 32 33 34 35 36 37 38 39 40 41 42 43 44 45 46 47 48 49 50
000
NZUS99 KSGF 230707
HRRSGF

HOURLY WEATHER
NATIONAL WEATHER SERVICE SPRINGFIELD MO
200 AM CDT SAT MAY 23 2015

......SGF CWA......

CITY           SKY/WX    TMP DP  RH WIND       PRES   REMARKS
SPRINGFIELD    CLOUDY    60  48  64 SE12      30.22S
JOPLIN         CLOUDY    61  51  70 SE9       30.19F
WEST PLAINS    CLOUDY    58  49  72 CALM      30.27S
ROLLA          CLOUDY    60  51  72 S7        30.24S
OSAGE BEACH    CLOUDY    61  52  72 SE3       30.24S
BRANSON        CLOUDY    57  50  77 CALM      30.24S

......SURROUNDING SGF CWA......

CITY           SKY/WX    TMP DP  RH WIND       PRES   REMARKS
CHANUTE        CLOUDY    59  54  83 SE5       30.18S
PARSONS        CLOUDY    61  54  77 CALM      30.19S
COFFEYVILLE    CLOUDY    60  53  77 S6        30.17F
EMPORIA        LGT RAIN  56  54  93 S3        30.18R
GROVE OK       MOCLDY    61  52  72 E3        30.20S
ROGERS AR      LGT RAIN  59  52  77 SE10      30.21F
SILOAM SPRINGS CLOUDY    55  48  76 SE3       30.21S
HARRISON AR    CLOUDY    57  51  80 SE9       30.24F
NEAR YELLVILLE CLOUDY    57  52  82 CALM      30.23S

......KANSAS AND MISSOURI......

CITY           SKY/WX    TMP DP  RH WIND       PRES   REMARKS
KANSAS CTY INT CLOUDY    61  52  72 S9        30.20S
DOWNTOWN KC    CLOUDY    63  50  62 SE6       30.19F
COLUMBIA       CLOUDY    61  52  72 SE6       30.25R
SEDALIA        CLOUDY    62  54  74 SE6       30.24S
ST JOSEPH      CLOUDY    60  51  72 SE7       30.20F
ST LOUIS       CLOUDY    64  52  64 E3        30.25S
SPIRIT OF STL  CLOUDY    59  57  93 CALM      30.24S
KIRKSVILLE     PTCLDY    52  52 100 SE3       30.25R
WICHITA        CLOUDY    55  54  96 S8        30.16S FOG
TOPEKA         LGT RAIN  60  54  80 E6        30.18F
OLATHE         CLOUDY    60  52  74 SE8       30.19S

......TENNESSEE......

CITY           SKY/WX    TMP DP  RH WIND       PRES   REMARKS
MEMPHIS        CLOUDY    66  48  52 E6        30.22S
NASHVILLE      PTCLDY    53  50  89 CALM      30.28R

......ARKANSAS.......

CITY           SKY/WX    TMP DP  RH WIND       PRES   REMARKS
FAYETTEVILLE   CLOUDY    58  52  80 E5        30.21S
FT SMITH       HVY RAIN  59  55  87 E7        30.19F FOG
LITTLE ROCK    CLOUDY    62  56  80 N3        30.21F

......OKLAHOMA.......

CITY           SKY/WX    TMP DP  RH WIND       PRES   REMARKS
TULSA          CLOUDY    60  57  89 E3        30.16F
PONCA CITY     CLOUDY    57  56  96 SE8       30.16S FOG
MCALESTER      CLOUDY    61  59  93 E3        30.15F
OKLAHOMA CITY  CLOUDY    58  56  93 SE8       30.13S

......IOWA............

CITY           SKY/WX    TMP DP  RH WIND       PRES   REMARKS
DES MOINES     MOCLDY    60  48  64 CALM      30.22S
QUAD CITIES    MOCLDY    57  48  72 E7        30.23S

......ILLINOIS........

CITY           SKY/WX    TMP DP  RH WIND       PRES   REMARKS
QUINCY         CLOUDY    57  53  86 CALM      30.24R
CHICAGO        MOCLDY    50  32  50 SE5       30.28F



USA.gov is the U.S. government's official web portal to all federal, state and local government web resources and services.